Weather History for Grayling, MI

Change the Weather History Date:

Tuesday, February 18, 2014

  Actual Average (KHTL) Record (KHTL)
Temperature  
Mean Temperature 20 °F 20 °F  
Max Temperature 32 °F 30 °F 52 °F (1994)
Min Temperature 9 °F 11 °F -30 °F (1920)
Degree Days  
Heating Degree Days 44 45  
Month to date heating degree days 830  
Since 1 July heating degree days 5442  
Moisture  
Dew Point 16 °F    
Average Humidity 79    
Maximum Humidity 97    
Minimum Humidity 63    
Precipitation  
Precipitation 0.00 in 0.04 in 0.45 in (1976)
Month to date precipitation 0.71  
Year to date precipitation 2.22  
Snow  
Snow 0.00 in 0.50 in 4.00 in (2008)
Month to date snowfall 8.3  
Since 1 July snowfall 50.4  
Snow Depth -    
Sea Level Pressure  
Sea Level Pressure 29.71 in    
Wind  
Wind Speed 5 mph (SSW)    
Max Wind Speed 14 mph    
Max Gust Speed 20 mph    
Visibility 8 miles    
Events Snow    
T = Trace of Precipitation, MM = Missing Value Source: NWS Daily Summary

Daily Weather History Graph

Daily Weather History Graph

Search for Another Location

Airport:

Trip Planner

Search our weather history database for the weather conditions in past years. The results will help you decide how hot, cold, wet, or windy it might be!

Date:

Astronomy

Feb. 18, 2014 Rise Set
Actual Time 7:34 AM EST 6:11 PM EST
Civil Twilight 7:04 AM EST 6:41 PM EST
Nautical Twilight 6:30 AM EST 7:15 PM EST
Astronomical Twilight 5:57 AM EST 7:49 PM EST
Moon 10:15 PM EST (2/18) 8:56 AM EST (2/18)
Length of Visible Light 11h 36m
Length of Day
10h 37m
Waning Gibbous, 87% of the Moon is Illuminated
Feb 18
Waning Gibbous
Feb 22
Last Quarter
Mar 1
New
Mar 8
First Quarter
Mar 16
Full

Hourly Weather History & Observations

Time (EST) Temp. Windchill Dew Point Humidity Pressure Visibility Wind Dir Wind Speed Gust Speed Precip Events Conditions
12:15 AM 14.0 °F 3.9 °F 11.3 °F 89% 29.68 in 2.5 mi NE 6.9 mph - N/A Snow Light Snow
12:34 AM 14.0 °F 5.1 °F 11.3 °F 89% 29.68 in 2.5 mi NE 5.8 mph - N/A Snow Light Snow
12:55 AM 14.0 °F 5.1 °F 11.3 °F 89% 29.68 in 2.5 mi NNE 5.8 mph - N/A Snow Light Snow
1:15 AM 14.0 °F 5.1 °F 11.7 °F 90% 29.68 in 2.5 mi NNE 5.8 mph - N/A Snow Light Snow
1:35 AM 14.2 °F 8.4 °F 11.7 °F 90% 29.67 in 2.5 mi NNE 3.5 mph - N/A Snow Light Snow
1:55 AM 14.7 °F 9.0 °F 12.2 °F 90% 29.68 in 2.5 mi NNE 3.5 mph - N/A Snow Light Snow
2:15 AM 15.4 °F 9.8 °F 12.9 °F 90% 29.68 in 1.8 mi North 3.5 mph - N/A Snow Light Snow
2:35 AM 15.4 °F - 12.9 °F 90% 29.68 in 1.0 mi Calm Calm - N/A Snow Snow
2:55 AM 15.4 °F - 13.1 °F 90% 29.69 in 1.8 mi Calm Calm - N/A Snow Light Snow
3:14 AM 15.4 °F - 12.9 °F 90% 29.69 in 2.0 mi Calm Calm - N/A Snow Light Snow
3:35 AM 15.4 °F - 12.7 °F 89% 29.70 in 3.0 mi Calm Calm - N/A Snow Light Snow
3:55 AM 15.4 °F 9.8 °F 12.6 °F 88% 29.71 in 5.0 mi West 3.5 mph - N/A Snow Light Snow
4:14 AM 14.2 °F 6.7 °F 11.5 °F 89% 29.72 in 7.0 mi West 4.6 mph - N/A Snow Light Snow
4:35 AM 13.6 °F 4.6 °F 10.9 °F 89% 29.73 in 5.0 mi West 5.8 mph - N/A Snow Light Snow
4:55 AM 13.1 °F 4.0 °F 10.8 °F 90% 29.74 in 7.0 mi West 5.8 mph - N/A Snow Light Snow
5:15 AM 13.3 °F 5.6 °F 10.6 °F 89% 29.75 in 4.0 mi West 4.6 mph - N/A Snow Light Snow
5:35 AM 13.1 °F 2.8 °F 10.4 °F 89% 29.77 in 5.0 mi West 6.9 mph - N/A Snow Light Snow
5:54 AM 13.3 °F 4.2 °F 10.4 °F 88% 29.76 in 5.0 mi West 5.8 mph - N/A Snow Light Snow
6:15 AM 12.9 °F 5.2 °F 10.2 °F 89% 29.76 in 7.0 mi West 4.6 mph - N/A Snow Light Snow
6:35 AM 12.9 °F 3.8 °F 10.4 °F 90% 29.78 in 10.0 mi West 5.8 mph - N/A   Clear
6:54 AM 12.9 °F 5.2 °F 10.4 °F 90% 29.78 in 10.0 mi West 4.6 mph - N/A   Clear
7:15 AM 10.4 °F - 8.2 °F 91% 29.78 in 10.0 mi Calm Calm - N/A   Clear
7:35 AM 9.7 °F - 7.7 °F 92% 29.79 in 10.0 mi Calm Calm - N/A   Clear
7:54 AM 10.4 °F 4.0 °F 8.4 °F 92% 29.81 in 5.0 mi West 3.5 mph - N/A Snow Light Snow
8:15 AM 12.9 °F 5.2 °F 10.8 °F 91% 29.82 in 5.0 mi WSW 4.6 mph - N/A Snow Light Snow
8:35 AM 12.9 °F 6.9 °F 10.4 °F 90% 29.82 in 5.0 mi West 3.5 mph - N/A Snow Light Snow
8:54 AM 12.9 °F 6.9 °F 10.4 °F 90% 29.81 in 5.0 mi WSW 3.5 mph - N/A Snow Light Snow
9:15 AM 12.9 °F 6.9 °F 10.0 °F 88% 29.82 in 7.0 mi West 3.5 mph - N/A   Mostly Cloudy
9:34 AM 15.4 °F 6.8 °F 12.2 °F 87% 29.83 in 10.0 mi West 5.8 mph - N/A   Scattered Clouds
9:55 AM 17.8 °F 9.6 °F 13.8 °F 84% 29.83 in 10.0 mi WSW 5.8 mph - N/A   Scattered Clouds
10:15 AM 18.0 °F 7.7 °F 14.0 °F 84% 29.84 in 10.0 mi WSW 8.1 mph - N/A   Scattered Clouds
10:35 AM 19.4 °F 12.8 °F 15.8 °F 86% 29.82 in 10.0 mi SW 4.6 mph - N/A   Mostly Cloudy
10:55 AM 20.7 °F 13.0 °F 15.8 °F 81% 29.82 in 10.0 mi SW 5.8 mph - N/A   Scattered Clouds
11:15 AM 23.0 °F 14.7 °F 16.7 °F 77% 29.83 in 10.0 mi SW 6.9 mph - N/A   Scattered Clouds
11:35 AM 25.3 °F 19.7 °F 18.3 °F 75% 29.83 in 10.0 mi SW 4.6 mph - N/A   Scattered Clouds
11:55 AM 25.5 °F 16.9 °F 17.4 °F 71% 29.83 in 10.0 mi SW 8.1 mph - N/A   Scattered Clouds
12:14 PM 28.0 °F 19.3 °F 18.3 °F 67% 29.81 in 10.0 mi SSW 9.2 mph - N/A   Clear
12:35 PM 28.0 °F 20.0 °F 18.0 °F 66% 29.80 in 10.0 mi South 8.1 mph - N/A   Clear
12:55 PM 28.2 °F 18.9 °F 17.8 °F 65% 29.81 in 10.0 mi SSW 10.4 mph - N/A   Clear
1:15 PM 29.5 °F 21.8 °F 18.5 °F 64% 29.79 in 10.0 mi SW 8.1 mph - N/A   Clear
1:35 PM 30.6 °F 23.8 °F 19.4 °F 63% 29.77 in 10.0 mi South 6.9 mph - N/A   Clear
1:54 PM 30.2 °F 21.9 °F 19.8 °F 65% 29.76 in 10.0 mi SSE 9.2 mph - N/A   Clear
2:15 PM 30.4 °F 22.9 °F 20.1 °F 66% 29.75 in 10.0 mi SSE 8.1 mph - N/A   Clear
2:35 PM 32.0 °F 23.6 °F 21.0 °F 64% 29.73 in 10.0 mi SSE 10.4 mph - N/A   Clear
2:54 PM 30.6 °F 22.4 °F 20.3 °F 66% 29.75 in 10.0 mi South 9.2 mph - N/A   Scattered Clouds
3:15 PM 30.7 °F 21.4 °F 20.5 °F 66% 29.73 in 10.0 mi SE 11.5 mph - N/A   Scattered Clouds
3:35 PM 30.9 °F 22.2 °F 20.7 °F 66% 29.70 in 10.0 mi SSE 10.4 mph - N/A   Clear
3:54 PM 32.9 °F 25.3 °F 22.1 °F 65% 29.70 in 10.0 mi SSE 9.2 mph - N/A   Clear
4:15 PM 32.9 °F 25.9 °F 21.7 °F 64% 29.69 in 10.0 mi SSE 8.1 mph - N/A   Clear
4:35 PM 32.9 °F 24.1 °F 22.1 °F 65% 29.67 in 10.0 mi SE 11.5 mph - N/A   Clear
4:54 PM 32.9 °F 24.1 °F 21.9 °F 64% 29.66 in 10.0 mi SE 11.5 mph 17.3 mph N/A   Clear
5:15 PM 30.6 °F 20.2 °F 20.3 °F 66% 29.65 in 10.0 mi SE 13.8 mph 17.3 mph N/A   Clear
5:35 PM 30.6 °F 22.4 °F 19.9 °F 65% 29.64 in 10.0 mi SE 9.2 mph 19.6 mph N/A   Clear
5:54 PM 30.6 °F 21.2 °F 20.1 °F 65% 29.64 in 10.0 mi SSE 11.5 mph - N/A   Clear
6:15 PM 29.5 °F 24.5 °F 19.2 °F 66% 29.65 in 10.0 mi SSE 4.6 mph - N/A   Clear
6:35 PM 29.1 °F 24.1 °F 18.9 °F 66% 29.67 in 10.0 mi SSW 4.6 mph - N/A   Clear
6:54 PM 28.4 °F 22.2 °F 19.2 °F 69% 29.66 in 10.0 mi South 5.8 mph - N/A   Clear
7:15 PM 28.0 °F 24.2 °F 19.4 °F 70% 29.65 in 10.0 mi SSE 3.5 mph - N/A   Clear
7:35 PM 28.2 °F 22.0 °F 19.4 °F 70% 29.64 in 10.0 mi SSE 5.8 mph - N/A   Clear
7:54 PM 28.2 °F 21.0 °F 19.6 °F 70% 29.63 in 10.0 mi SSE 6.9 mph - N/A   Clear
8:15 PM 28.0 °F 22.8 °F 19.9 °F 72% 29.61 in 10.0 mi SSE 4.6 mph - N/A   Clear
8:34 PM 28.0 °F 24.2 °F 19.9 °F 72% 29.60 in 10.0 mi SE 3.5 mph - N/A   Clear
8:55 PM 28.0 °F 22.8 °F 20.7 °F 74% 29.60 in 10.0 mi South 4.6 mph - N/A   Clear
9:15 PM 27.9 °F - 21.0 °F 75% 29.59 in 10.0 mi Calm Calm - N/A   Clear
9:34 PM 28.0 °F - 21.2 °F 76% 29.59 in 10.0 mi Calm Calm - N/A   Clear
9:55 PM 28.0 °F 24.2 °F 20.8 °F 74% 29.59 in 10.0 mi SSW 3.5 mph - N/A   Clear
10:15 PM 28.0 °F 24.2 °F 20.8 °F 74% 29.58 in 7.0 mi South 3.5 mph - N/A   Clear
10:35 PM 28.0 °F - 21.2 °F 76% 29.57 in 10.0 mi Calm Calm - N/A   Clear
10:55 PM 22.8 °F - 17.4 °F 80% 29.57 in 7.0 mi Calm Calm - N/A   Clear
11:15 PM 16.0 °F - 13.1 °F 88% 29.56 in 5.0 mi Calm Calm - N/A   Clear
11:35 PM 18.7 °F 10.6 °F 18.0 °F 97% 29.55 in 4.0 mi SW 5.8 mph - N/A   Clear
11:55 PM 28.2 °F 23.1 °F 23.0 °F 81% 29.55 in 10.0 mi SW 4.6 mph - N/A   Clear